Voltar ao catálogo

STARLINK-3623

AtivoComunicaçõesVLEO
NORAD 51772·PAYLOAD·🇺🇸 United States

Lançado Feb 25, 2022 de Vandenberg Space Force Base

Loading…

Próximas Passagens (próximas 24 horas)

TLE

AtualizadoSource: CelesTrak SupGP

Época: Sep 14, 2026, 21:51 UTC

1 51772C 22017E   26257.91090278 -.00010379  00000+0 -30661-3 0  2579
2 51772  53.1582 197.8177 0001233  93.8794 236.8732 15.34399988    18

Acompanhe STARLINK-3623 em tempo real com AllMySat

Download on the App Store